GW2592 Weather Reports


time (UTC)temp
C
wind
direction
speed
KPH
gust
KPH
rain 1hr
cm
rain 24hr
cm
rain mn
cm
humidity
%
barometer
mb
20260509213022 10 225 0.0 3.2 0.00 0.00 0.00 85
20260509212031 10 172 1.6 8.0 0.00 0.00 0.00 86
20260509211022 10 202 0.0 3.2 0.00 0.00 0.00 86
20260509210030 10 236 0.0 3.2 0.00 0.00 0.00 86
20260509205022 10 0.0 0.0 0.00 0.00 0.00 86
20260509204030 10 0.0 0.0 0.00 0.00 0.00 86
20260509203022 10 0.0 0.0 0.00 0.00 0.00 85
20260509202030 10 0.0 0.0 0.00 0.00 0.00 85
20260509201022 10 0.0 0.0 0.00 0.00 0.00 85
20260509200030 10 0.0 0.0 0.00 0.00 0.00 85
20260509195022 11 0.0 0.0 0.00 0.00 0.00 84
20260509194036 11 0.0 0.0 0.00 0.00 0.00 83
20260509193027 11 0.0 0.0 0.00 0.00 0.00 82
20260509192025 11 0.0 0.0 0.00 0.00 0.00 82
20260509191023 11 0.0 0.0 0.00 0.00 0.00 83
20260509190030 11 0.0 0.0 0.00 0.00 0.00 83
20260509185022 11 0.0 0.0 0.00 0.00 0.00 83
20260509184030 12 0.0 0.0 0.00 0.00 0.00 82
20260509183024 12 0.0 0.0 0.00 0.00 0.00 81
20260509182050 12 0.0 0.0 0.00 0.00 0.00 80
20260509181042 12 0.0 0.0 0.00 0.00 0.00 81
20260509180050 12 0.0 0.0 0.00 0.00 0.00 81
20260509175022 12 0.0 0.0 0.00 0.00 0.00 82
20260509174049 12 0.0 0.0 0.00 0.00 0.00 84
20260509173022 13 0.0 0.0 0.00 0.00 0.00 85
20260509172110 13 0.0 0.0 0.00 0.00 0.00 84
20260509171022 13 0.0 0.0 0.00 0.00 0.00 84
20260509170030 13 0.0 0.0 0.00 0.00 0.00 83
20260509165022 14 0.0 0.0 0.00 0.00 0.00 83
20260509164030 14 0.0 0.0 0.00 0.00 0.00 82
20260509163022 15 0.0 0.0 0.00 0.00 0.00 81
20260509162050 15 0.0 0.0 0.00 0.00 0.00 80
20260509161042 16 0.0 0.0 0.00 0.00 0.00 79
20260509160030 16 0.0 0.0 0.00 0.00 0.00 77
20260509155022 16 0.0 0.0 0.00 0.00 0.00 75
20260509154021 17 0.0 0.0 0.00 0.00 0.00 74
20260509153022 17 0.0 0.0 0.00 0.00 0.00 73
20260509152030 18 0.0 0.0 0.00 0.00 0.00 72
20260509151042 18 0.0 0.0 0.00 0.00 0.00 71
20260509150030 20 0.0 0.0 0.00 0.00 0.00 70
20260509145021 20 0.0 0.0 0.00 0.00 0.00 68
20260509144050 21 0.0 0.0 0.00 0.00 0.00 66
20260509143021 21 0.0 0.0 0.00 0.00 0.00 64
20260509142111 22 0.0 0.0 0.00 0.00 0.00 63
20260509141022 22 0.0 0.0 0.00 0.00 0.00 61
20260509140030 23 0.0 0.0 0.00 0.00 0.00 61
20260509135022 25 0.0 0.0 0.00 0.00 0.00 57
20260509134030 25 0.0 0.0 0.00 0.00 0.00 50
20260509133021 26 227 0.0 3.2 0.00 0.00 0.00 43
20260509132030 26 0.0 0.0 0.00 0.00 0.00 43
20260509131022 26 0.0 0.0 0.00 0.00 0.00 42
20260509130030 25 0.0 0.0 0.00 0.00 0.00 39
20260509125021 25 249 0.0 3.2 0.00 0.00 0.00 45
20260509124030 26 0.0 0.0 0.00 0.00 0.00 44
20260509123101 26 0.0 0.0 0.00 0.00 0.00 41
20260509122030 25 204 0.0 3.2 0.00 0.00 0.00 42
20260509121022 25 219 0.0 3.2 0.00 0.00 0.00 41
20260509120031 25 227 1.6 8.0 0.00 0.00 0.00 40
20260509115042 25 114 0.0 3.2 0.00 0.00 0.00 43
20260509114030 25 245 3.2 8.0 0.00 0.00 0.00 41
20260509113042 25 173 0.0 3.2 0.00 0.00 0.00 42
20260509112030 25 228 1.6 8.0 0.00 0.00 0.00 41
20260509111043 24 0.0 0.0 0.00 0.00 0.00 41
20260509110030 24 245 1.6 8.0 0.00 0.00 0.00 43
20260509105022 24 228 1.6 8.0 0.00 0.00 0.00 43
20260509104030 23 269 1.6 8.0 0.00 0.00 0.00 42
20260509103021 23 265 1.6 3.2 0.00 0.00 0.00 44
20260509102029 22 248 1.6 8.0 0.00 0.00 0.00 45
20260509101021 22 239 0.0 3.2 0.00 0.00 0.00 47
20260509100030 22 257 3.2 16.1 0.00 0.00 0.00 49
20260509095023 22 247 0.0 3.2 0.00 0.00 0.00 48
20260509094030 21 219 0.0 3.2 0.00 0.00 0.00 53
20260509093021 21 0.0 0.0 0.00 0.00 0.00 53
20260509092030 20 213 0.0 3.2 0.00 0.00 0.00 54
20260509091102 20 193 0.0 3.2 0.00 0.00 0.00 53
20260509090030 19 106 0.0 3.2 0.00 0.00 0.00 56
20260509085022 18 0.0 0.0 0.00 0.00 0.00 58
20260509084030 17 268 0.0 8.0 0.00 0.00 0.00 60
20260509083021 16 107 0.0 3.2 0.00 0.00 0.00 63
20260509082030 15 250 1.6 8.0 0.00 0.00 0.00 68
20260509081043 15 242 1.6 8.0 0.00 0.00 0.00 69
20260509080030 14 242 1.6 8.0 0.00 0.00 0.00 72
20260509075021 13 238 1.6 8.0 0.00 0.00 0.00 73
20260509074029 12 244 1.6 8.0 0.00 0.00 0.00 75
20260509073022 11 248 1.6 8.0 0.00 0.00 0.00 78
20260509072030 10 0.0 0.0 0.00 0.00 0.00 81
20260509071042 8 257 0.0 8.0 0.00 0.00 0.00 83
20260509070050 8 252 0.0 3.2 0.00 0.00 0.00 85
20260509065022 7 230 0.0 3.2 0.00 0.00 0.00 87
20260509064050 7 0.0 0.0 0.00 0.00 0.00 89
20260509063021 7 249 0.0 3.2 0.00 0.00 0.00 90
20260509062030 6 0.0 0.0 0.00 0.00 0.00 90
20260509061042 6 229 0.0 3.2 0.00 0.00 0.00 91
20260509060050 6 245 0.0 3.2 0.00 0.00 0.00 91
20260509055021 6 0.0 0.0 0.00 0.00 0.00 91
20260509054030 5 246 0.0 3.2 0.00 0.00 0.00 91
20260509053022 5 0.0 0.0 0.00 0.00 0.00 91
20260509052030 5 0.0 0.0 0.00 0.00 0.00 91
20260509051042 4 0.0 0.0 0.00 0.00 0.00 91
20260509050030 4 0.0 0.0 0.00 0.00 0.00 91
20260509045022 4 0.0 0.0 0.00 0.00 0.00 91
20260509044030 4 0.0 0.0 0.00 0.00 0.00 91
20260509043022 4 0.0 0.0 0.00 0.00 0.00 91
20260509042030 4 0.0 0.0 0.00 0.00 0.00 91
20260509041022 4 0.0 0.0 0.00 0.00 0.00 91
20260509040050 5 0.0 0.0 0.00 0.00 0.00 91
20260509035041 5 0.0 0.0 0.00 0.00 0.00 91
20260509034030 5 0.0 0.0 0.00 0.00 0.00 91
20260509033021 5 0.0 0.0 0.00 0.00 0.00 91
20260509032049 5 0.0 0.0 0.00 0.00 0.00 91
20260509031122 5 0.0 0.0 0.00 0.00 0.00 91
20260509030030 5 0.0 0.0 0.00 0.00 0.00 90
20260509025021 5 0.0 0.0 0.00 0.00 0.00 90
20260509024030 5 0.0 0.0 0.00 0.00 0.00 90
20260509023022 5 0.0 0.0 0.00 0.00 0.00 90
20260509022030 5 0.0 0.0 0.00 0.00 0.00 90
20260509021021 5 0.0 0.0 0.00 0.00 0.00 90
20260509020050 5 0.0 0.0 0.00 0.00 0.00 90
20260509015021 6 0.0 0.0 0.00 0.00 0.00 90
20260509014029 6 0.0 0.0 0.00 0.00 0.00 90
20260509013022 6 0.0 0.0 0.00 0.00 0.00 90
20260509012030 6 0.0 0.0 0.00 0.00 0.00 89
20260509011022 6 0.0 0.0 0.00 0.00 0.00 89
20260509010029 6 0.0 0.0 0.00 0.00 0.00 89
20260509005021 6 0.0 0.0 0.00 0.00 0.00 89
20260509004029 6 0.0 0.0 0.00 0.00 0.00 89
20260509003022 6 0.0 0.0 0.00 0.00 0.00 89
20260509002029 6 0.0 0.0 0.00 0.00 0.00 89
20260509001021 6 0.0 0.0 0.00 0.00 0.00 89
20260509000030 7 0.0 0.0 0.00 0.00 0.00 89
20260508235022 7 0.0 0.0 0.00 0.00 0.00 89
20260508234030 7 0.0 0.0 0.00 0.00 0.00 89
20260508233021 7 207 0.0 3.2 0.00 0.00 0.00 89
20260508232030 7 199 0.0 3.2 0.00 0.00 0.00 88
20260508231021 7 156 0.0 3.2 0.00 0.00 0.00 88
20260508230049 7 0.0 0.0 0.00 0.00 0.00 88
20260508225021 7 0.0 0.0 0.00 0.00 0.00 88
20260508224030 8 0.0 0.0 0.00 0.00 0.00 88
20260508223021 8 0.0 0.0 0.00 0.00 0.00 88
20260508222029 8 0.0 0.0 0.00 0.00 0.00 87
20260508221021 8 0.0 0.0 0.00 0.00 0.00 87
20260508220029 8 0.0 0.0 0.00 0.00 0.00 87
20260508215022 8 0.0 0.0 0.00 0.00 0.00 87
20260508214029 8 207 0.0 3.2 0.00 0.00 0.00 87